| time (UTC) | temp F | wind direction | speed knots | gust knots | rain 1hr in | rain 24hr in | rain mn in | humidity % | barometer mb |
| 20260505121547 | 49 | 55 | 0.0 | 0.0 | 0.00 | 0.00 | 0.00 | 94 | 1013.6 |
| 20260505120050 | 49 | 55 | 0.0 | 0.0 | 0.00 | 0.00 | 0.00 | 94 | 1013.7 |
| 20260505114546 | 49 | 55 | 0.0 | 0.0 | 0.00 | 0.00 | 0.00 | 93 | 1013.7 |
| 20260505113045 | 48 | 55 | 0.0 | 1.7 | 0.00 | 0.00 | 0.00 | 93 | 1013.6 |
| 20260505111541 | 48 | 55 | 0.0 | 1.7 | 0.00 | 0.00 | 0.00 | 93 | 1013.6 |
| 20260505101541 | 48 | 55 | 0.0 | 0.9 | 0.00 | 0.00 | 0.00 | 91 | 1013.1 |
| 20260505100033 | 49 | 55 | 0.0 | 1.7 | 0.00 | 0.00 | 0.00 | 91 | 1013.0 |
| 20260505094531 | 49 | 55 | 0.0 | 0.0 | 0.00 | 0.00 | 0.00 | 90 | 1012.9 |
| 20260505093029 | 50 | 57 | 0.0 | 0.9 | 0.00 | 0.00 | 0.00 | 89 | 1012.9 |
| 20260505091527 | 50 | 65 | 0.0 | 0.9 | 0.00 | 0.00 | 0.00 | 90 | 1012.7 |
| 20260505090024 | 51 | 65 | 0.0 | 0.0 | 0.00 | 0.00 | 0.00 | 90 | 1012.6 |
| 20260505084533 | 51 | 90 | 0.0 | 1.7 | 0.00 | 0.00 | 0.00 | 88 | 1012.5 |
| 20260505083020 | 52 | 90 | 0.0 | 0.9 | 0.00 | 0.00 | 0.00 | 89 | 1012.5 |
| 20260505081518 | 52 | 78 | 0.0 | 0.0 | 0.00 | 0.00 | 0.00 | 89 | 1012.4 |
| 20260505080015 | 52 | 78 | 0.0 | 2.6 | 0.00 | 0.00 | 0.00 | 89 | 1012.2 |
| 20260505074513 | 52 | 44 | 0.9 | 1.7 | 0.00 | 0.00 | 0.00 | 89 | 1012.1 |
| 20260505073012 | 53 | 44 | 0.9 | 2.6 | 0.00 | 0.00 | 0.00 | 88 | 1011.9 |
| 20260505071508 | 53 | 44 | 0.0 | 2.6 | 0.00 | 0.00 | 0.00 | 88 | 1011.8 |
| 20260505070007 | 53 | 339 | 0.0 | 1.7 | 0.00 | 0.00 | 0.00 | 88 | 1011.5 |
| 20260505064507 | 53 | 339 | 0.9 | 3.5 | 0.00 | 0.00 | 0.00 | 88 | 1011.4 |
| 20260505063009 | 53 | 304 | 1.7 | 2.6 | 0.00 | 0.00 | 0.00 | 87 | 1011.2 |
| 20260505061506 | 54 | 287 | 0.9 | 3.5 | 0.00 | 0.00 | 0.00 | 86 | 1011.1 |
| 20260505060005 | 54 | 319 | 2.6 | 3.5 | 0.00 | 0.00 | 0.00 | 85 | 1010.9 |
| 20260505054505 | 55 | 300 | 1.7 | 3.5 | 0.00 | 0.00 | 0.00 | 82 | 1011.0 |
| 20260505053004 | 55 | 297 | 2.6 | 4.3 | 0.00 | 0.00 | 0.00 | 81 | 1011.1 |
| 20260505051503 | 56 | 298 | 3.5 | 6.1 | 0.00 | 0.00 | 0.00 | 81 | 1010.9 |
| 20260505041502 | 59 | 261 | 1.7 | 7.0 | 0.00 | 0.00 | 0.00 | 81 | 1010.4 |
| 20260505040005 | 59 | 290 | 4.3 | 7.0 | 0.00 | 0.00 | 0.00 | 81 | 1010.1 |
| 20260505034501 | 60 | 289 | 5.2 | 7.0 | 0.00 | 0.00 | 0.00 | 79 | 1009.9 |
| 20260505033001 | 62 | 265 | 4.3 | 7.0 | 0.00 | 0.00 | 0.00 | 78 | 1009.7 |
| 20260505031608 | 63 | 309 | 1.7 | 3.5 | 0.00 | 0.00 | 0.00 | 75 | 1009.5 |
| 20260505030110 | 65 | 344 | 0.0 | 2.6 | 0.00 | 0.00 | 0.00 | 73 | 1009.3 |
| 20260505024606 | 66 | 313 | 0.9 | 4.3 | 0.00 | 0.00 | 0.00 | 72 | 1009.2 |
| 20260505023059 | 67 | 224 | 3.5 | 6.1 | 0.00 | 0.00 | 0.00 | 70 | 1009.0 |
| 20260505021600 | 68 | 162 | 1.7 | 5.2 | 0.00 | 0.00 | 0.00 | 71 | 1009.0 |
| 20260505020058 | 68 | 225 | 2.6 | 7.0 | 0.00 | 0.00 | 0.00 | 70 | 1009.0 |
| 20260505014609 | 69 | 208 | 1.7 | 7.8 | 0.00 | 0.00 | 0.00 | 70 | 1009.1 |
| 20260505013057 | 69 | 153 | 2.6 | 6.1 | 0.00 | 0.00 | 0.00 | 69 | 1009.1 |
| 20260505011606 | 69 | 213 | 3.5 | 8.7 | 0.00 | 0.00 | 0.00 | 70 | 1009.3 |
| 20260505010057 | 69 | 188 | 4.3 | 8.7 | 0.00 | 0.00 | 0.00 | 70 | 1009.3 |
| 20260505004556 | 69 | 244 | 2.6 | 7.8 | 0.00 | 0.00 | 0.00 | 70 | 1009.2 |
| 20260505003056 | 70 | 206 | 3.5 | 9.6 | 0.00 | 0.00 | 0.00 | 73 | 1009.2 |
| 20260505001557 | 70 | 223 | 3.5 | 10.4 | 0.00 | 0.00 | 0.00 | 72 | 1009.2 |
| 20260505000112 | 70 | 182 | 3.5 | 11.3 | 0.00 | 0.00 | 0.00 | 72 | 1009.5 |
| 20260504234555 | 70 | 211 | 2.6 | 10.4 | 0.00 | 0.00 | 0.00 | 72 | 1009.6 |
| 20260504233108 | 69 | 200 | 4.3 | 10.4 | 0.00 | 0.00 | 0.00 | 72 | 1009.7 |
| 20260504231553 | 70 | 254 | 5.2 | 9.6 | 0.00 | 0.00 | 0.00 | 73 | 1009.7 |
| 20260504230054 | 70 | 239 | 5.2 | 9.6 | 0.00 | 0.00 | 0.00 | 72 | 1009.9 |
| 20260504224558 | 69 | 229 | 3.5 | 9.6 | 0.00 | 0.00 | 0.00 | 71 | 1010.1 |
| 20260504223117 | 69 | 248 | 3.5 | 7.8 | 0.00 | 0.00 | 0.00 | 73 | 1010.2 |
| 20260504221550 | 69 | 238 | 4.3 | 9.6 | 0.00 | 0.00 | 0.00 | 73 | 1010.3 |
| 20260504220050 | 69 | 263 | 4.3 | 7.8 | 0.00 | 0.00 | 0.00 | 74 | 1010.4 |
| 20260504214551 | 68 | 244 | 4.3 | 7.8 | 0.00 | 0.00 | 0.00 | 73 | 1010.6 |
| 20260504213059 | 67 | 248 | 3.5 | 7.0 | 0.00 | 0.00 | 0.00 | 70 | 1010.6 |
| 20260504211546 | 67 | 245 | 0.9 | 7.0 | 0.00 | 0.00 | 0.00 | 76 | 1010.7 |
| 20260504210047 | 67 | 196 | 1.7 | 6.1 | 0.00 | 0.00 | 0.00 | 76 | 1011.0 |
| 20260504204549 | 66 | 278 | 2.6 | 6.1 | 0.00 | 0.00 | 0.00 | 73 | 1011.2 |
| 20260504203059 | 65 | 167 | 2.6 | 6.1 | 0.00 | 0.00 | 0.00 | 75 | 1011.2 |
| 20260504201543 | 64 | 194 | 2.6 | 7.0 | 0.00 | 0.00 | 0.00 | 78 | 1011.3 |
| 20260504200044 | 64 | 120 | 1.7 | 4.3 | 0.00 | 0.00 | 0.00 | 78 | 1011.4 |
| 20260504194541 | 63 | 329 | 3.5 | 5.2 | 0.00 | 0.00 | 0.00 | 78 | 1011.4 |
| 20260504193041 | 61 | 233 | 1.7 | 6.1 | 0.00 | 0.00 | 0.00 | 78 | 1011.5 |
| 20260504191539 | 62 | 237 | 2.6 | 6.1 | 0.00 | 0.00 | 0.00 | 80 | 1011.5 |
| 20260504190044 | 60 | 224 | 0.9 | 6.1 | 0.00 | 0.00 | 0.00 | 78 | 1011.7 |
| 20260504184536 | 60 | 345 | 0.0 | 6.1 | 0.00 | 0.00 | 0.00 | 83 | 1011.7 |
| 20260504183034 | 58 | 198 | 0.9 | 6.1 | 0.00 | 0.00 | 0.00 | 83 | 1011.7 |
| 20260504181539 | 57 | 188 | 1.7 | 6.1 | 0.00 | 0.00 | 0.00 | 84 | 1011.5 |
| 20260504180031 | 57 | 109 | 1.7 | 5.2 | 0.00 | 0.00 | 0.00 | 84 | 1011.7 |
| 20260504174529 | 56 | 150 | 1.7 | 5.2 | 0.00 | 0.00 | 0.00 | 87 | 1011.7 |
| 20260504173028 | 56 | 197 | 3.5 | 6.1 | 0.00 | 0.00 | 0.00 | 86 | 1011.6 |
| 20260504171526 | 55 | 161 | 2.6 | 6.1 | 0.00 | 0.00 | 0.00 | 87 | 1011.4 |